Presure
134 149 123 123 125 113 93 112 167 148 120 110 166 155 143 174 174 173 164 184 152 155 154 195 196 183 188 187 204 207 210 206 205 206 201 202 208 152 141 146 135 132 139 161 217 169 188 196 171
147 115 140 150 126 192 155 106 112 117 146 158 122 170 99 186 178 186 161 163 151 166 161 160 195 187 172 171 167 180 190 195 199 192 199 201 200 192 205 205 212 214 220 205 198 210 208 208 202
140 142 144 169 179 205 152 138 141 182 159 159 160 169 166 169 181 175 183 159 175 174 181 187 184 182 201 179 194 184 192 188 192 202 196 196 196 197 186 190 215 205 217 199 206 213 187 217 189
122 127 175 115 201 200 161 159 177 177 180 194 177 136 182 167 180 174 174 176 179 172 162 188 178 174 175 203 196 195 196 198 188 198 202 202 193 200 201 199 200 209 204 208 214 218 210 206 204
165 166 170 188 210 145 156 173 170 186 167 176 178 186 180 104 179 173 181 174 173 173 176 174 179 181 171 192 190 190 187 195 204 195 211 197 198 200 195 194 215 192 205 205 211 194 186 210 210
138 158 146 130 187 184 169 177 113 125 185 187 203 181 174 189 186 181 181 174 172 177 171 182 172 182 172 183 191 186 188 199 194 193 188 202 190 199 193 186 211 196 204 201 207 203 202 201 207
154 168 175 144 172 195 158 129 179 170 169 185 190 168 172 181 179 181 183 175 171 176 171 174 172 176 177 178 176 162 184 200 207 202 192 194 199 191 203 200 196 218 205 198 196 203 199 203 189
168 168 177 115 184 190 174 156 170 180 175 177 195 157 175 184 167 177 177 177 181 178 173 174 179 173 190 173 170 171 182 204 197 200 211 200 193 191 193 187 203 189 219 203 198 198 192 190 186
123 169 150 154 144 166 166 178 181 180 175 171 174 167 168 175 188 181 181 179 177 171 168 181 172 182 176 171 184 174 172 161 173 197 190 186 195 195 192 200 186 169 193 200 190 204 193 190 186
165 165 146 165 163 177 180 166 176 180 179 177 180 177 169 163 192 189 183 172 176 181 182 167 155 177 188 179 175 184 175 192 184 210 182 177 177 186 188 176 185 197 195 195 175 192 200 174 182
168 174 160 166 183 189 172 153 176 162 175 180 188 163 160 173 165 167 171 180 176 175 180 177 175 179 182 175 172 156 180 164 183 191 193 178 155 173 180 171 163 178 187 190 174 165 173 172 160
179 166 154 181 169 189 182 171 196 196 187 196 194 165 170 170 190 190 180 178 179 177 172 173 170 178 185 189 191 198 197 198 203 207 201 196 192 155 153 149 205 200 185 172 175 198 177 168 175
159 161 177 187 188 189 183 200 187 155 168 182 194 160 183 165 179 187 182 183 179 175 167 164 180 190 188 177 188 192 182 183 187 193 205 215 182 163 192 173 160 141 172 188 197 192 134 154 172
185 185 187 181 185 178 197 176 183 170 181 197 193 152 184 180 173 184 184 173 179 175 168 174 183 181 167 187 182 183 188 196 190 193 195 198 214 198 182 166 179 155 173 168 195 163 194 173 153
144 173 162 184 190 191 151 187 195 185 182 192 194 183 190 182 186 179 179 175 170 169 180 178 173 170 169 172 193 177 184 199 212 213 211 205 215 222 196 172 170 167 168 192 158 189 164 194 176
160 166 170 189 161 186 185 184 196 193 181 191 186 190 185 173 182 177 173 178 180 180 182 173 178 182 181 204 170 186 189 196 208 195 222 227 208 206 212 206 205 205 212 174 178 169 145 142 146
181 186 194 187 184 165 171 178 181 175 183 188 189 179 187 176 176 174 180 179 181 181 180 187 192 200 189 204 186 193 187 204 194 203 200 207 239 236 207 192 194 214 213 199 206 197 199 182 153
165 185 183 179 186 183 182 162 179 191 192 185 190 180 179 176 180 172 177 183 185 182 186 193 202 185 176 211 178 189 191 210 197 200 201 218 207 228 221 232 226 225 223 235 229 204 202 217 194
195 176 167 170 166 177 167 152 181 177 184 188 181 137 180 188 176 175 176 170 179 173 185 177 166 171 179 174 219 211 213 209 212 164 214 217 216 213 234 208 218 229 225 214 221 225 214 223 236
187 164 186 175 184 177 186 177 174 170 184 161 180 184 167 180 182 167 169 177 188 179 170 173 174 168 167 179 207 212 217 211 207 204 208 218 225 226 228 228 224 216 224 233 227 222 219 216 225
180 184 184 191 183 179 174 171 183 176 171 174 174 167 161 171 158 163 179 171 168 176 180 170 184 199 184 199 210 214 216 218 217 217 211 220 231 231 235 237 235 226 220 230 223 236 241 235 228
171 179 176 163 179 172 186 188 180 180 179 184 189 147 164 175 176 178 169 161 169 174 171 171 172 170 186 183 210 213 208 202 229 223 231 220 222 229 231 241 294 295 273 256 244 222 227 234 241
171 175 179 176 178 152 178 191 176 179 185 174 183 184 169 176 176 173 172 196 196 168 171 189 188 181 182 195 195 214 215 221 214 210 214 220 242 314 326 318 313 308 115 304 303 258 252 256 245
177 182 184 177 165 183 169 174 168 180 182 179 147 175 177 182 177 167 189 185 166 172 183 177 183 190 188 190 193 214 220 211 206 229 246 270 332 323 311 321 331 340 341 333 295 115 346 274 268
183 180 184 182 178 191 175 180 173 175 176 113 182 180 179 185 179 164 168 159 167 170 178 181 181 190 198 200 193 223 218 227 237 259 272 321 315 314 316 276 311 200 301 225 321 335 343 349 337
187 186 170 180 181 156 180 144 186 183 178 177 187 190 194 179 190 192 165 195 178 178 184 200 194 130 196 196 228 225 225 241 258 269 308 308 309 307 298 300 303 289 294 301 227 313 143 324 324
181 185 183 182 193 141 190 185 184 190 196 188 199 196 184 186 189 175 179 176 189 171 174 180 189 206 194 225 224 236 240 255 263 300 306 264 301 297 293 292 291 269 274 295 295 296 305 316 321
192 188 184 188 166 193 192 181 192 184 172 188 180 170 172 186 173 167 188 172 173 182 194 197 200 199 217 220 229 238 251 256 266 304 299 299 294 295 294 297 339 329 273 300 290 301 307 295 303
197 182 183 183 187 177 185 186 165 167 168 195 188 185 188 187 184 182 176 178 181 182 114 198 220 228 219 234 237 247 253 274 273 315 303 298 294 304 303 331 319 310 298 309 279 281 273 271 265
174 188 194 199 192 203 175 190 186 189 177 189 201 162 189 180 189 180 180 181 192 198 201 212 216 228 225 237 247 241 261 278 308 312 308 302 303 299 327 315 307 303 287 285 278 275 267 263 266
Wind_Speed
52 52 57 54 41 39 47 52 41 51 45 47 47 39 53 54 48 44 41 40 54 51 55 43 44 50 48 49 43 47 51 52 51 49 49 48 45 54 55 56 56 59 62 66 45 62 60 54 63
47 42 45 52 56 47 41 51 49 48 63 56 47 46 47 44 51 39 47 56 56 57 60 61 45 46 57 58 62 57 53 51 50 50 49 48 46 52 46 48 48 46 46 52 54 47 47 46 50
60 61 48 53 60 46 53 59 52 45 56 61 58 53 54 54 49 49 41 59 52 52 49 46 46 50 46 54 49 57 58 56 52 51 53 51 49 48 53 52 45 47 45 51 49 43 55 39 50
59 60 67 45 57 47 52 59 52 53 53 48 55 44 52 55 50 55 54 49 50 55 61 49 51 54 54 49 51 54 52 52 50 50 52 52 51 50 47 45 45 44 46 46 43 38 41 43 42
58 54 62 60 53 53 60 58 57 47 50 57 55 47 53 43 53 56 47 52 55 55 52 55 52 50 55 47 51 52 52 52 50 50 48 49 49 50 48 45 41 45 44 46 43 50 53 39 39
53 52 62 55 55 51 47 59 49 56 51 53 41 47 54 55 48 47 47 53 55 52 55 49 56 51 57 49 47 53 53 49 49 49 49 49 49 50 49 46 41 43 41 42 41 43 42 41 38
53 64 63 65 54 54 55 56 56 55 60 55 41 50 57 53 48 46 46 51 56 51 56 56 57 54 53 51 55 49 55 44 42 46 49 50 48 46 46 45 42 36 40 40 41 38 40 38 42
67 62 73 55 71 61 59 60 58 56 55 56 44 57 52 54 55 48 49 52 51 49 57 56 52 55 47 54 56 59 53 40 44 43 42 46 47 47 48 43 40 41 33 36 35 34 37 38 38
69 64 57 64 60 62 59 57 63 57 55 56 53 57 52 55 56 50 44 48 51 53 57 50 57 53 53 57 51 58 59 60 60 43 44 44 43 46 49 49 46 38 37 33 35 32 33 33 34
67 61 57 69 65 74 75 58 67 64 62 62 63 57 54 57 52 50 45 49 50 51 52 58 66 54 52 54 56 51 57 49 49 44 50 48 43 41 42 44 45 48 41 37 38 33 33 36 30
76 83 59 73 83 71 70 64 66 63 63 63 62 59 56 56 61 61 55 45 46 52 51 50 52 53 55 56 59 62 56 63 49 50 50 52 54 44 46 44 46 46 43 37 28 37 38 33 42
93 75 53 78 75 68 65 65 63 65 60 63 62 55 58 62 53 47 50 48 48 52 54 54 56 55 54 56 55 56 57 56 56 50 47 49 47 59 61 59 44 49 47 40 34 42 39 34 34
75 72 88 84 80 74 64 65 63 67 61 61 57 59 49 63 60 52 48 47 50 52 57 60 59 59 59 61 59 57 55 54 55 57 54 50 53 62 48 53 56 61 50 53 48 45 50 47 33
91 91 89 82 83 69 67 66 63 61 56 58 52 62 50 57 61 48 47 54 54 55 60 57 61 59 63 64 62 65 66 67 63 62 59 54 55 58 57 69 65 61 63 58 60 56 48 41 56
77 86 69 84 77 70 70 67 61 52 58 57 48 48 45 54 57 49 50 54 59 61 64 61 57 60 63 63 72 63 64 66 64 66 70 66 63 61 66 69 67 72 71 65 61 56 48 55 50
74 75 80 84 57 65 68 62 62 53 57 57 48 45 45 58 63 55 56 60 63 64 67 59 65 68 67 74 65 68 65 67 65 66 63 69 72 70 68 64 69 70 70 73 73 71 67 66 65
96 90 87 81 78 73 59 63 61 59 59 60 51 54 48 53 61 60 64 63 65 66 68 75 74 76 70 77 67 72 68 74 67 66 65 66 69 73 76 75 71 74 74 79 81 86 86 76 69
75 84 79 80 76 70 71 58 67 66 60 60 57 61 61 60 67 61 64 72 71 69 72 75 77 67 64 78 65 72 73 79 71 70 71 73 70 73 74 74 77 76 77 81 85 86 86 82 78
85 88 79 72 66 74 62 63 78 73 68 63 56 47 67 68 68 72 72 63 70 65 73 66 65 66 70 68 84 84 86 87 84 60 83 79 77 76 79 78 78 82 81 80 79 83 83 84 79
90 73 81 82 81 77 76 76 79 77 76 54 63 63 60 67 70 65 64 65 77 71 67 68 72 69 71 79 91 91 91 91 87 87 87 89 90 87 85 86 85 83 85 89 89 87 86 84 83
92 85 88 80 81 79 79 73 80 82 81 75 62 57 60 67 62 64 70 66 68 74 79 73 85 88 86 91 95 96 96 96 97 96 94 94 94 92 92 90 90 91 88 92 89 91 94 94 88
89 93 94 70 86 84 86 79 82 84 84 76 77 71 75 82 78 74 70 68 74 78 78 79 81 79 91 89 100 101 97 94 101 99 101 98 98 100 98 98 97 98 99 99 98 90 89 90 90
95 97 97 91 90 73 85 87 84 86 84 74 83 83 80 86 74 75 75 88 91 76 81 94 94 92 93 99 96 108 106 104 104 103 102 102 105 88 85 86 87 89 27 94 99 102 98 97 91
104 102 100 96 76 89 82 92 78 80 82 80 63 81 86 90 83 73 86 85 73 80 90 91 95 98 99 99 99 114 109 107 104 109 107 103 79 75 74 75 74 68 67 72 65 26 80 102 100
108 107 103 100 94 94 94 93 81 85 86 44 90 90 89 95 86 75 82 75 83 87 94 97 98 101 106 107 104 115 111 111 110 107 102 80 75 72 68 60 62 40 58 50 60 62 65 66 74
102 109 87 104 103 73 95 75 97 97 91 90 94 98 100 85 95 98 77 98 97 97 100 103 105 64 107 107 115 111 113 112 108 107 91 79 72 68 68 66 57 49 53 53 53 54 50 58 61
106 105 106 106 106 71 99 103 100 99 98 95 94 98 95 93 97 87 97 93 104 90 96 102 107 113 107 118 113 111 111 110 109 96 80 68 72 70 70 65 56 49 52 48 49 50 49 48 49
106 106 108 108 86 106 100 99 105 101 91 100 88 73 81 94 88 79 96 88 94 105 110 111 112 114 121 115 112 112 112 111 108 86 80 72 72 71 70 68 58 49 51 42 45 40 34 29 30
102 110 109 110 105 97 105 104 92 90 93 105 100 97 101 104 102 99 93 97 106 108 49 115 119 114 113 115 114 114 113 112 106 76 74 69 70 68 64 54 50 42 39 38 41 37 38 35 38
95 110 107 103 102 106 97 104 104 104 98 108 101 81 107 104 108 97 95 102 113 116 117 116 116 117 116 116 116 112 115 108 85 72 68 66 64 62 56 49 42 39 38 39 38 39 33 35 37
Wind_Direction
295 280 292 292 268 291 272 292 280 276 286 282 282 285 291 280 281 275 284 273 280 276 281 292 288 279 280 278 291 290 288 286 286 288 283 282 282 277 277 274 275 274 274 273 272 273 271 272 275
296 284 296 296 290 296 289 277 280 295 292 288 294 280 281 284 279 281 280 277 285 277 281 282 294 286 281 281 279 280 284 286 289 284 288 284 283 276 283 282 280 279 275 272 273 271 271 270 270
279 279 297 302 309 298 282 286 288 274 280 284 289 285 282 284 283 281 280 282 279 278 285 292 289 288 295 284 290 285 286 289 291 290 286 286 283 283 277 279 283 277 277 273 272 271 272 271 272
285 283 310 276 302 299 288 283 285 284 280 291 281 286 285 284 285 280 280 283 286 282 285 294 287 285 287 295 291 290 290 291 290 290 287 288 287 287 282 281 281 277 276 274 272 274 272 272 271
295 302 305 304 297 290 287 284 286 287 285 287 287 291 289 279 278 285 287 286 283 285 288 288 289 290 287 292 292 294 294 296 295 293 284 287 286 286 287 286 279 279 278 275 273 270 272 273 273
288 291 296 288 304 303 287 283 283 289 291 283 296 290 287 280 284 287 285 282 285 286 287 290 288 288 289 295 300 295 296 296 293 292 291 284 288 287 288 286 281 278 275 275 274 271 271 272 274
283 297 302 282 304 299 287 287 289 284 285 288 292 287 283 290 291 288 286 285 285 284 286 287 287 289 290 292 293 287 292 296 292 287 289 288 289 291 287 287 284 278 271 271 270 274 271 275 274
294 297 304 276 304 300 295 289 292 292 284 285 298 284 287 291 286 287 287 282 284 289 284 286 288 289 294 290 291 292 293 309 289 288 289 287 288 288 287 289 283 283 281 270 270 270 272 274 272
280 294 290 290 284 298 293 296 293 292 287 285 289 281 283 292 292 286 285 287 289 285 282 289 287 291 286 285 287 285 288 292 293 289 288 288 290 290 291 289 288 273 279 268 271 270 268 268 271
291 291 288 298 294 302 299 294 296 295 293 293 290 286 285 285 287 287 289 285 288 290 290 284 285 290 298 288 284 283 280 293 291 295 284 290 290 287 287 288 290 288 282 277 269 273 271 265 273
292 293 287 292 296 296 293 290 290 288 289 289 289 274 279 283 283 287 285 287 287 286 288 287 287 291 291 285 282 291 284 287 282 287 284 277 281 286 277 272 269 282 277 275 265 259 263 263 258
289 290 278 295 294 291 289 289 291 284 286 287 285 283 282 284 287 281 284 289 287 287 286 285 282 288 292 297 299 301 297 295 295 288 280 274 271 274 275 274 277 281 277 267 252 270 258 253 255
284 286 291 294 294 293 293 289 288 280 288 286 283 283 286 280 287 292 293 292 287 286 281 282 293 299 298 288 295 296 284 288 290 291 290 279 267 271 257 264 272 272 267 265 262 255 264 254 249
285 288 290 292 290 294 293 285 290 284 290 287 286 280 286 284 283 291 292 288 288 284 282 289 297 297 283 299 297 298 299 296 288 290 283 279 273 265 252 270 257 267 259 258 255 251 244 231 252
273 291 284 289 290 293 272 291 291 292 286 287 292 289 289 286 286 285 286 285 284 287 295 293 293 288 288 292 298 291 294 298 290 288 286 280 275 266 248 259 257 264 262 249 258 240 249 242 227
282 283 288 290 278 289 292 291 296 295 289 292 293 293 290 285 285 288 288 292 292 293 296 288 291 294 295 297 287 294 296 297 297 291 289 279 274 274 268 255 254 254 255 256 255 250 260 268 263
285 286 289 291 292 284 287 287 287 293 295 292 297 291 288 284 287 292 294 293 294 295 294 295 295 295 294 297 292 295 295 298 293 292 288 285 280 269 270 272 267 258 253 248 249 251 251 249 253
287 284 287 289 287 290 291 279 296 295 294 294 296 294 288 292 292 291 294 295 294 296 296 296 297 294 290 302 291 296 297 298 293 292 290 294 284 284 277 270 266 261 255 260 257 247 249 250 246
280 285 286 281 281 289 286 272 293 288 295 294 293 291 297 291 293 293 292 292 294 295 297 296 287 293 297 291 307 302 302 300 300 295 295 294 290 285 282 277 274 269 263 257 255 255 249 249 253
280 281 279 284 282 289 286 287 288 293 293 272 290 285 284 284 284 286 290 293 292 289 292 295 296 290 289 297 308 306 303 299 298 295 295 295 294 289 286 281 276 272 270 265 261 257 255 253 251
280 278 279 277 282 286 284 286 285 287 289 290 294 285 281 286 275 284 294 294 294 298 297 294 296 299 299 304 308 306 304 302 300 297 295 294 292 289 287 283 277 274 270 268 264 260 258 257 254
280 277 280 280 282 281 281 280 281 279 283 286 283 284 286 285 285 289 291 289 294 296 296 297 297 295 299 299 310 307 304 301 300 298 297 295 295 294 290 286 276 271 267 265 265 261 260 259 258
277 278 277 279 279 268 285 279 278 283 282 288 287 286 281 284 291 290 289 287 286 294 296 295 298 300 300 305 306 306 303 300 298 297 295 293 292 285 279 277 274 271 275 266 263 261 262 261 260
275 274 273 276 274 281 280 278 283 283 280 284 279 284 284 287 289 290 287 290 292 293 295 300 300 300 301 303 302 306 300 298 297 296 296 296 292 287 282 281 279 279 278 273 271 261 265 259 260
269 273 272 275 278 275 277 279 281 281 282 273 281 283 284 283 284 289 292 289 295 296 298 299 299 300 300 302 301 302 299 299 299 301 303 298 295 289 285 283 283 281 274 276 267 264 261 260 258
266 268 273 273 273 270 277 275 274 275 278 279 281 279 278 286 283 282 290 287 293 298 297 296 299 297 301 299 302 300 301 301 305 308 305 297 295 291 288 288 284 279 274 267 261 262 256 261 259
267 267 267 272 270 272 270 274 274 275 274 276 276 275 281 281 281 289 288 292 291 298 298 299 299 300 298 302 302 304 304 307 309 308 299 296 294 291 290 290 286 279 270 264 261 261 260 263 260
262 263 266 267 275 270 270 274 274 277 280 278 282 286 288 283 289 290 288 295 300 298 296 297 300 299 301 301 304 305 307 308 309 302 296 293 292 289 289 290 282 274 269 259 257 256 251 245 246
258 267 267 269 270 276 272 271 280 283 283 276 282 286 283 283 286 288 292 295 295 296 288 299 300 300 301 305 306 307 307 309 309 296 293 290 290 289 289 284 278 266 256 244 252 237 239 236 248
269 262 263 263 265 266 278 272 274 273 284 282 278 276 282 288 287 291 296 294 294 295 297 298 301 303 304 306 307 305 308 308 301 296 291 288 289 287 287 278 272 263 253 240 237 232 234 240 243